Regional Weather Roundup
Issued by NWS Little Rock, AR

Home | Current Version | Previous Version | Text Only | Print | Product List | Glossary On
Versions: 1 2 3 4 5 6 7 8 9 10 11 12 13 14 15 16 17 18 19 20 21 22 23 24 25 26 27 28 29 30 31
000
ASUS44 KLZK 291005
RWRLZK

WEATHER ROUNDUP FOR ARKANSAS
NATIONAL WEATHER SERVICE LITTLE ROCK AR
500 AM CDT THU JUN 29 2017

NOTE: "FAIR" INDICATES FEW OR NO CLOUDS BELOW 12,000 FEET WITH NO
SIGNIFICANT WEATHER AND/OR OBSTRUCTIONS TO VISIBILITY.

ARZ001-003-010-029-291100-
NORTHWEST ARKANSAS

CITY           SKY/WX    TMP DP  RH WIND       PRES   REMARKS
FAYETTEVILLE   PTCLDY    72  66  81 S8        29.90F
FORT SMITH     CLEAR     73  68  84 E6        29.88S
HARRISON       CLEAR     68  66  93 SE8       29.94S
BENTONVILLE    MOCLDY    73  64  73 S8        29.91R
ROGERS         CLOUDY    73  66  78 S13       29.91S
SILOAM SPGS    PTCLDY    73  64  73 S8        29.89R
HIGHFILL       MOCLDY    72  67  84 S8        29.90S
$$

ARZ004-005-016-291100-
NORTH CENTRAL ARKANSAS

CITY           SKY/WX    TMP DP  RH WIND       PRES   REMARKS
BATESVILLE     CLEAR     72  66  83 CALM      29.96R
FLIPPIN        CLEAR     66  61  82 CALM      29.92R
MTN HOME       CLEAR     69  65  86 CALM      29.94R
$$

ARZ040-041-291100-
WEST CENTRAL ARKANSAS

CITY           SKY/WX    TMP DP  RH WIND       PRES   REMARKS
MENA           PTCLDY    77  75  94 S5        29.94S
MOUNT IDA      CLEAR     74  67  78 CALM      29.91S
$$

ARZ009-017-025-026-028-291100-
NORTHEAST ARKANSAS

CITY           SKY/WX    TMP DP  RH WIND       PRES   REMARKS
CORNING        FAIR      72  72 100 SE5       29.97R
JONESBORO      CLEAR     72  69  90 S9        29.97R
WALNUT RIDGE   CLEAR     72  66  83 S12       29.96R
$$

ARZ022-023-033-042-044-291100-
CENTRAL ARKANSAS

CITY           SKY/WX    TMP DP  RH WIND       PRES   REMARKS
LITTLE ROCK    PTCLDY    71  71 100 S8        29.95R
N LITTLE ROCK    N/A     72  69  91 S6        29.94R
JACKSONVILLE   PTCLDY    73  72  98 SE5       29.94R
CONWAY           N/A     75  72  88 S10       29.92R
SEARCY         PTCLDY    71  70  96 S6        29.97R
HOT SPRINGS    CLEAR     74  71  91 SE7       29.93F
RUSSELLVILLE   CLEAR     70  68  93 CALM      29.91R
CLINTON        FAIR      66  64  94 CALM      29.95R FOG
$$

ARZ036-291100-
EAST ARKANSAS

CITY           SKY/WX    TMP DP  RH WIND       PRES   REMARKS
WEST MEMPHIS   CLEAR     73  71  93 S9        29.98R
$$

ARZ050-053-066-070-073-291100-
SOUTHWEST ARKANSAS

CITY           SKY/WX    TMP DP  RH WIND       PRES   REMARKS
ARKADELPHIA    FOG       70  70 100 CALM      29.94R VSB 1
CAMDEN         CLOUDY    72  68  88 SE7       29.94R
TEXARKANA      CLEAR     71  71 100 SE8       29.92R
EL DORADO      CLOUDY    73  70  90 SE7       29.94S
DE QUEEN       PTCLDY    70  70 100 NE3       29.90R FOG
$$

ARZ056-057-069-291100-
SOUTHEAST ARKANSAS

CITY           SKY/WX    TMP DP  RH WIND       PRES   REMARKS
PINE BLUFF     PTCLDY    72  70  93 SE8       29.96R
STUTTGART      CLEAR     73  61  64 S8        29.97S
MONTICELLO     CLOUDY    72  70  93 SE3       29.96F

$$






USA.gov is the U.S. government's official web portal to all federal, state and local government web resources and services.